Weather History for Fort Madison, IA

Change the Weather History Date:

Saturday, January 19, 2013

  Actual Average Record
Temperature  
Mean Temperature 40 °F -  
Max Temperature 53 °F 33 °F 60 °F (2006)
Min Temperature 28 °F 13 °F -10 °F (1970)
Degree Days  
Heating Degree Days 24    
Moisture  
Dew Point 30 °F    
Average Humidity 59    
Maximum Humidity 75    
Minimum Humidity 41    
Precipitation  
Precipitation 0.00 in - - ()
Sea Level Pressure  
Sea Level Pressure 29.95 in    
Wind  
Wind Speed 14 mph (WSW)    
Max Wind Speed 25 mph    
Max Gust Speed 33 mph    
Visibility 10 miles    
Events      
Averages and records for this station are not official NWS values.
T = Trace of Precipitation, MM = Missing Value Source: NWS Daily Summary

Daily Weather History Graph

Daily Weather History Graph

Search for Another Location

Airport:

Trip Planner

Search our weather history database for the weather conditions in past years. The results will help you decide how hot, cold, wet, or windy it might be!

Date:

Astronomy

Jan. 19, 2013 Rise Set
Actual Time 7:24 AM CST 5:07 PM CST
Civil Twilight 6:55 AM CST 5:37 PM CST
Nautical Twilight 6:21 AM CST 6:11 PM CST
Astronomical Twilight 5:49 AM CST 6:43 PM CST
Moon 11:34 AM CST 12:59 AM CST
Length of Visible Light 10h 42m
Length of Day
9h 42m
First Quarter, 57% of the Moon is Illuminated
Jan 19
First Quarter
Jan 26
Full
Feb 3
Last Quarter
Feb 10
New
Feb 17
First Quarter

Hourly Weather History & Observations

Time (CST) Temp. Windchill Dew Point Humidity Pressure Visibility Wind Dir Wind Speed Gust Speed Precip Events Conditions
12:15 AM 42.8 °F 35.1 °F 30.2 °F 61% 29.97 in 10.0 mi SW 16.1 mph 21.9 mph N/A   Clear
12:35 AM 42.8 °F 35.8 °F 30.2 °F 61% 29.97 in 10.0 mi SW 13.8 mph - N/A   Clear
12:55 AM 42.8 °F 36.6 °F 30.2 °F 61% 29.97 in 10.0 mi SSW 11.5 mph - N/A   Clear
1:15 AM 41.0 °F 34.7 °F 28.4 °F 61% 29.97 in 10.0 mi SSW 10.4 mph 16.1 mph N/A   Clear
1:35 AM 41.0 °F 34.3 °F 28.4 °F 61% 29.97 in 10.0 mi SSW 11.5 mph - N/A   Clear
1:55 AM 39.2 °F 31.6 °F 28.4 °F 65% 29.97 in 10.0 mi SSW 12.7 mph 16.1 mph N/A   Clear
2:15 AM 39.2 °F 32.0 °F 28.4 °F 65% 29.97 in 10.0 mi SSW 11.5 mph 19.6 mph N/A   Clear
2:35 AM 39.2 °F 31.6 °F 28.4 °F 65% 29.97 in 10.0 mi SSW 12.7 mph 18.4 mph N/A   Clear
2:55 AM 41.0 °F 33.5 °F 28.4 °F 61% 29.96 in 10.0 mi SSW 13.8 mph 19.6 mph N/A   Clear
3:15 AM 39.2 °F 31.6 °F 28.4 °F 65% 29.95 in 10.0 mi SSW 12.7 mph 19.6 mph N/A   Clear
3:35 AM 39.2 °F 31.2 °F 28.4 °F 65% 29.95 in 10.0 mi SSW 13.8 mph 19.6 mph N/A   Clear
3:55 AM 39.2 °F 30.8 °F 28.4 °F 65% 29.94 in 10.0 mi SSW 15.0 mph 23.0 mph N/A   Clear
4:15 AM 39.2 °F 30.8 °F 28.4 °F 65% 29.93 in 10.0 mi SSW 15.0 mph 23.0 mph N/A   Clear
4:35 AM 39.2 °F 31.2 °F 28.4 °F 65% 29.93 in 10.0 mi SSW 13.8 mph 21.9 mph N/A   Clear
4:55 AM 39.2 °F 30.5 °F 30.2 °F 70% 29.92 in 10.0 mi SSW 16.1 mph - N/A   Clear
5:15 AM 39.2 °F 30.8 °F 30.2 °F 70% 29.92 in 10.0 mi SSW 15.0 mph - N/A   Clear
5:35 AM 39.2 °F 30.5 °F 30.2 °F 70% 29.91 in 10.0 mi SSW 16.1 mph 19.6 mph N/A   Clear
5:55 AM 39.2 °F 31.2 °F 30.2 °F 70% 29.91 in 10.0 mi SSW 13.8 mph 19.6 mph N/A   Clear
7:15 AM 39.2 °F 31.6 °F 30.2 °F 70% 29.90 in 10.0 mi SSW 12.7 mph - N/A   Clear
7:55 AM 39.2 °F 32.0 °F 30.2 °F 70% 29.90 in 10.0 mi SSW 11.5 mph - N/A   Clear
8:15 AM 39.2 °F 31.2 °F 30.2 °F 70% 29.90 in 10.0 mi SSW 13.8 mph 18.4 mph N/A   Clear
8:35 AM 41.0 °F 33.9 °F 30.2 °F 65% 29.90 in 10.0 mi SW 12.7 mph - N/A   Clear
9:35 AM 44.6 °F 37.2 °F 32.0 °F 61% 29.90 in 10.0 mi SSW 17.3 mph 24.2 mph N/A   Clear
9:55 AM 44.6 °F 37.4 °F 32.0 °F 61% 29.90 in 10.0 mi SW 16.1 mph 27.6 mph N/A   Clear
10:15 AM 46.4 °F 39.8 °F 32.0 °F 57% 29.90 in 10.0 mi WSW 16.1 mph 21.9 mph N/A   Clear
10:35 AM 46.4 °F 40.1 °F 33.8 °F 62% 29.89 in 10.0 mi SW 15.0 mph 24.2 mph N/A   Clear
10:55 AM 46.4 °F 39.8 °F 33.8 °F 62% 29.89 in 10.0 mi WSW 16.1 mph 23.0 mph N/A   Clear
11:15 AM 48.2 °F - 33.8 °F 58% 29.89 in 10.0 mi WSW 17.3 mph 21.9 mph N/A   Clear
11:35 AM 48.2 °F - 33.8 °F 58% 29.88 in 10.0 mi WSW 11.5 mph 24.2 mph N/A   Clear
11:55 AM 48.2 °F - 33.8 °F 58% 29.87 in 10.0 mi WSW 11.5 mph 19.6 mph N/A   Clear
12:15 PM 48.2 °F - 33.8 °F 58% 29.86 in 10.0 mi WSW 10.4 mph 19.6 mph N/A   Clear
12:35 PM 48.2 °F - 32.0 °F 54% 29.87 in 10.0 mi WSW 15.0 mph 20.7 mph N/A   Clear
12:55 PM 50.0 °F - 32.0 °F 50% 29.85 in 10.0 mi WSW 20.7 mph 29.9 mph N/A   Clear
1:15 PM 51.8 °F - 32.0 °F 47% 29.85 in 10.0 mi WSW 10.4 mph 23.0 mph N/A   Clear
1:55 PM 51.8 °F - 32.0 °F 47% 29.84 in 10.0 mi WSW 10.4 mph 21.9 mph N/A   Clear
2:15 PM 53.6 °F - 30.2 °F 41% 29.84 in 10.0 mi WSW 10.4 mph 18.4 mph N/A   Clear
2:35 PM 53.6 °F - 30.2 °F 41% 29.84 in 10.0 mi WSW 12.7 mph 18.4 mph N/A   Clear
2:55 PM 53.6 °F - 30.2 °F 41% 29.85 in 10.0 mi WSW 11.5 mph 17.3 mph N/A   Clear
3:15 PM 53.6 °F - 30.2 °F 41% 29.86 in 10.0 mi West 11.5 mph 21.9 mph N/A   Clear
3:35 PM 53.6 °F - 30.2 °F 41% 29.87 in 10.0 mi West 11.5 mph 16.1 mph N/A   Clear
3:55 PM 53.6 °F - 30.2 °F 41% 29.88 in 10.0 mi West 19.6 mph 26.5 mph N/A   Clear
4:15 PM 53.6 °F - 30.2 °F 41% 29.89 in 10.0 mi West 13.8 mph 18.4 mph N/A   Clear
4:35 PM 51.8 °F - 30.2 °F 44% 29.89 in 10.0 mi West 11.5 mph - N/A   Clear
4:55 PM 50.0 °F - 30.2 °F 47% 29.91 in 10.0 mi West 10.4 mph 17.3 mph N/A   Clear
5:15 PM 48.2 °F - 30.2 °F 50% 29.93 in 10.0 mi West 10.4 mph - N/A   Clear
5:35 PM 46.4 °F 41.5 °F 30.2 °F 53% 29.94 in 10.0 mi WNW 10.4 mph - N/A   Clear
5:55 PM 46.4 °F 40.4 °F 30.2 °F 53% 29.96 in 10.0 mi WNW 13.8 mph 17.3 mph N/A   Clear
6:15 PM 46.4 °F 39.8 °F 30.2 °F 53% 29.97 in 10.0 mi WNW 16.1 mph 21.9 mph N/A   Clear
6:35 PM 44.6 °F 38.8 °F 30.2 °F 57% 29.99 in 10.0 mi WNW 11.5 mph - N/A   Clear
6:55 PM 44.6 °F 38.4 °F 30.2 °F 57% 30.00 in 10.0 mi WNW 12.7 mph 19.6 mph N/A   Clear
7:15 PM 44.6 °F 37.2 °F 30.2 °F 57% 30.01 in 10.0 mi West 17.3 mph 21.9 mph N/A   Clear
7:35 PM 44.6 °F 37.4 °F 30.2 °F 57% 30.01 in 10.0 mi WNW 16.1 mph 26.5 mph N/A   Clear
7:55 PM 42.8 °F 34.8 °F 30.2 °F 61% 30.02 in 10.0 mi WNW 17.3 mph 21.9 mph N/A   Clear
8:15 PM 42.8 °F 33.5 °F 30.2 °F 61% 30.03 in 10.0 mi WNW 23.0 mph 28.8 mph N/A   Clear
8:35 PM 42.8 °F 34.5 °F 30.2 °F 61% 30.04 in 10.0 mi WNW 18.4 mph 26.5 mph N/A   Clear
8:55 PM 39.2 °F 31.2 °F 30.2 °F 70% 30.05 in 10.0 mi WNW 13.8 mph - N/A   Clear
9:15 PM 39.2 °F 31.2 °F 30.2 °F 70% 30.06 in 10.0 mi WNW 13.8 mph 17.3 mph N/A   Scattered Clouds
9:35 PM 39.2 °F 31.2 °F 28.4 °F 65% 30.07 in 10.0 mi WNW 13.8 mph 21.9 mph N/A   Scattered Clouds
9:55 PM 37.4 °F 28.5 °F 28.4 °F 70% 30.08 in 10.0 mi WNW 15.0 mph 20.7 mph N/A   Mostly Cloudy
10:15 PM 37.4 °F 27.5 °F 28.4 °F 70% 30.10 in 10.0 mi NW 18.4 mph 23.0 mph N/A   Mostly Cloudy
10:35 PM 35.6 °F 24.2 °F 19.4 °F 52% 30.11 in 10.0 mi WNW 21.9 mph 31.1 mph N/A   Scattered Clouds
10:55 PM 35.6 °F 23.4 °F 21.2 °F 56% 30.12 in 10.0 mi NW 25.3 mph 33.4 mph N/A   Clear
11:15 PM 32.0 °F 19.5 °F 24.8 °F 75% 30.15 in 10.0 mi North 21.9 mph 27.6 mph N/A   Scattered Clouds
11:35 PM 28.4 °F 15.8 °F 21.2 °F 74% 30.17 in 10.0 mi NNW 18.4 mph 29.9 mph N/A   Mostly Cloudy
11:55 PM 28.4 °F 15.1 °F 19.4 °F 69% 30.18 in 10.0 mi NW 20.7 mph 28.8 mph N/A   Overcast